sat.trackr.live / text

‹ back to catalog

BEIDOU-2 IGSO-3 (C08)

NORAD 37384 · 2011-013A

PAYLOAD ACTIVE UNKNOWN

§ Identity

Operator
Country
PRC
Launch date
2011-04-09
Launch site
XICLF
Launch vehicle
Mass (kg)
RCS (m²)
31.62

Purposes: comms, nav

External: N2YO · Heavens-Above · Gunter

§ Orbital elements

Epoch: 2026-08-18T22:04:30.225792Z

Period
1,436.37 min
Inclination
62.4969°
Eccentricity
0.0036994
Mean motion
1.00253025 rev/d
Perigee alt
35,635.9 km
Apogee alt
35,947.9 km
Semi-major
42,170.0 km
B*
0.0000e+0
RAAN
39.5609°
Arg perigee
183.8957°
Mean anomaly
178.9703°
Rev number
5,629

§ Raw data

BEIDOU-2 IGSO-3 (C08)1 37384U 11013A   26230.91979428 -.00000155  00000+0  00000+0 0  99932 37384  62.4969  39.5609 0036994 183.8957 178.9703  1.00253025 56292

JSON: /api/v1/satellites/37384 · /tle

For live sub-satellite position, see the globe view (requires WebGL).

§ Visibility from observer

Set your observer location to see the next 7 days of passes ≥ 10°. The values pass through the URL so the page stays shareable.

No JS? Fill the form by hand. The geolocation button needs JavaScript.